TIANQI 36 (62368 NORAD) Tracking and Keplerian Element Data

This shows tracking and keplerian element data for the satellite.

Feedback or suggestion? Click here.




ElementValue
Catalog62368
NameTIANQI 36
Epoch Orbit659
Epoch Day35.11332567
Epoch Year2025
RAAN17.2933
Inclination44.9857
Eccentricity0.000795
Argument of Perigee197.3172
Mean Anonmoly162.7391
Mean Motion13.99986793
Decay Rate3.04E-06
L11 62368U 24245D 25035.11332567 .00000304 00000+0 29216-3 0 9994
L22 62368 44.9857 17.2933 0007950 197.3172 162.7391 13.99986793 6593



Live tracking and technical data element details for TIANQI 36 (NORAD 62368). TIANQI 36 can be tracked NOW for your location showing map with azimuth and elevation plus other details from your city location.







IsCatalogInMostPopularTable: catalog: 62368, numindb: 14
Update: records affected: 1



GetName: 62368 TIANQI 36

Hit Count: updated at: Mon, 19 May 2025 01:38:23 GMT